When you browse on this site, cookies collect data to enhance your experience and personalize the content and advertising you see.
Visit our Privacy Policy to learn more. By continuing to use the site, you agree to this use of cookies and data.
  • In Hungary
  • List of Countries
  • For 7 days
  • Water Temperature
  • Satellite Maps
  • Weather Map
  • News
  • Weather Widgets
  • user-avatar
    Login

    Hourly Weather Irati

    Today, 19 January, Saturday

    Time Temperature Precipitation Wind Pressure Humidity
    00:00 +20°C° 0.3 mm 0 mps 685 mmHg 98%
    01:00 +20°C° 0 mm 0 mps 685 mmHg 98%
    02:00 +19°C° 0 mm 0 mps 684 mmHg 98%
    03:00 +19°C° 0 mm 0 mps 684 mmHg 98%
    04:00 +19°C° 0 mm 0 mps 684 mmHg 98%
    05:00 +19°C° 0 mm 0 mps 684 mmHg 98%
    06:00 +18°C° 0 mm 0 mps 684 mmHg 98%
    07:00 +22°C° 0 mm 1 mps 685 mmHg 91%
    08:00 +24°C° 0 mm 1 mps 685 mmHg 84%
    09:00 +26°C° 0 mm 1 mps 686 mmHg 76%
    10:00 +28°C° 0.1 mm 1 mps 686 mmHg 67%
    11:00 +30°C° 0.1 mm 1 mps 686 mmHg 59%
    12:00 +32°C° 0.1 mm 1 mps 686 mmHg 50%
    13:00 +31°C° 1.5 mm 1 mps 685 mmHg 62%
    14:00 +30°C° 1.5 mm 1 mps 685 mmHg 75%
    15:00 +28°C° 1.5 mm 1 mps 684 mmHg 87%
    16:00 +27°C° 2.2 mm 1 mps 684 mmHg 90%
    17:00 +26°C° 2.2 mm 1 mps 684 mmHg 92%
    18:00 +25°C° 2.2 mm 1 mps 684 mmHg 95%
    19:00 +22°C° 1.1 mm 0 mps 684 mmHg 96%
    20:00 +21°C° 1.1 mm 0 mps 684 mmHg 97%
    21:00 +20°C° 1.1 mm 0 mps 685 mmHg 98%
    22:00 +20°C° 0 mm 0 mps 685 mmHg 98%
    23:00 +20°C° 0 mm 0 mps 685 mmHg 98%

    Tomorrow, 20 January, Sunday

    Time Temperature Precipitation Wind Pressure Humidity
    00:00 +20°C° 0 mm 0 mps 685 mmHg 98%
    01:00 +19°C° 0.1 mm 0 mps 685 mmHg 98%
    02:00 +19°C° 0.1 mm 0 mps 684 mmHg 98%
    03:00 +19°C° 0.1 mm 0 mps 684 mmHg 99%
    04:00 +19°C° 0 mm 0 mps 684 mmHg 99%
    05:00 +21°C° 0 mm 1 mps 684 mmHg 99%
    06:00 +21°C° 0 mm 1 mps 685 mmHg 99%
    07:00 +22°C° 0.1 mm 1 mps 685 mmHg 96%
    08:00 +23°C° 0.1 mm 1 mps 686 mmHg 93%
    09:00 +24°C° 0.1 mm 1 mps 686 mmHg 90%
    10:00 +25°C° 0.8 mm 1 mps 686 mmHg 90%
    11:00 +26°C° 0.8 mm 1 mps 686 mmHg 90%
    12:00 +26°C° 0.8 mm 1 mps 686 mmHg 90%
    13:00 +26°C° 1.4 mm 1 mps 686 mmHg 90%
    14:00 +27°C° 1.4 mm 1 mps 685 mmHg 90%
    15:00 +27°C° 1.4 mm 1 mps 685 mmHg 90%
    16:00 +27°C° 0.7 mm 1 mps 685 mmHg 88%
    17:00 +27°C° 0.7 mm 1 mps 685 mmHg 86%
    18:00 +25°C° 0.7 mm 0 mps 685 mmHg 84%
    19:00 +25°C° 1.2 mm 1 mps 685 mmHg 88%
    20:00 +24°C° 1.2 mm 1 mps 685 mmHg 93%
    21:00 +22°C° 1.2 mm 1 mps 685 mmHg 98%
    22:00 +22°C° 1 mm 1 mps 685 mmHg 98%
    23:00 +21°C° 1 mm 1 mps 685 mmHg 98%

    Day after tomorrow, 21 January, Monday

    Time Temperature Precipitation Wind Pressure Humidity
    00:00 +21°C° 1 mm 1 mps 686 mmHg 99%
    01:00 +21°C° 0.1 mm 1 mps 685 mmHg 99%
    02:00 +21°C° 0.1 mm 1 mps 685 mmHg 99%
    03:00 +20°C° 0.1 mm 1 mps 684 mmHg 99%
    04:00 +20°C° 0 mm 1 mps 684 mmHg 99%
    05:00 +20°C° 0 mm 1 mps 685 mmHg 99%
    06:00 +20°C° 0 mm 1 mps 685 mmHg 99%
    07:00 +22°C° 0 mm 1 mps 686 mmHg 92%
    08:00 +24°C° 0 mm 1 mps 686 mmHg 84%
    09:00 +26°C° 0 mm 2 mps 687 mmHg 77%
    10:00 +28°C° 0 mm 2 mps 687 mmHg 67%
    11:00 +30°C° 0 mm 2 mps 687 mmHg 57%
    12:00 +32°C° 0 mm 2 mps 687 mmHg 47%
    13:00 +32°C° 0.1 mm 2 mps 687 mmHg 51%
    14:00 +31°C° 0.1 mm 2 mps 686 mmHg 55%
    15:00 +31°C° 0.1 mm 2 mps 686 mmHg 58%
    16:00 +30°C° 1.1 mm 2 mps 686 mmHg 69%
    17:00 +28°C° 1.1 mm 1 mps 686 mmHg 79%
    18:00 +27°C° 1.1 mm 1 mps 685 mmHg 89%
    19:00 +25°C° 0.6 mm 1 mps 686 mmHg 92%
    20:00 +24°C° 0.6 mm 1 mps 686 mmHg 95%
    21:00 +21°C° 0.6 mm 0 mps 686 mmHg 98%
    22:00 +20°C° 0 mm 0 mps 686 mmHg 98%
    23:00 +20°C° 0 mm 0 mps 686 mmHg 98%

    22 January, Tuesday

    Time Temperature Precipitation Wind Pressure Humidity
    00:00 +20°C° 0 mm 0 mps 686 mmHg 98%
    01:00 +20°C° 0 mm 0 mps 686 mmHg 98%
    02:00 +19°C° 0 mm 0 mps 686 mmHg 99%
    03:00 +19°C° 0 mm 0 mps 685 mmHg 99%
    04:00 +19°C° 0 mm 0 mps 685 mmHg 99%
    05:00 +19°C° 0 mm 0 mps 686 mmHg 99%
    06:00 +19°C° 0 mm 0 mps 686 mmHg 99%
    07:00 +21°C° 0 mm 0 mps 687 mmHg 90%
    08:00 +23°C° 0 mm 0 mps 687 mmHg 82%
    09:00 +27°C° 0 mm 1 mps 688 mmHg 74%
    10:00 +30°C° 0 mm 1 mps 688 mmHg 63%
    11:00 +32°C° 0 mm 1 mps 688 mmHg 53%
    12:00 +34°C° 0 mm 1 mps 688 mmHg 42%
    13:00 +33°C° 0 mm 1 mps 687 mmHg 46%
    14:00 +33°C° 0 mm 1 mps 687 mmHg 50%
    15:00 +32°C° 0 mm 1 mps 686 mmHg 54%
    16:00 +30°C° 0.4 mm 1 mps 686 mmHg 63%
    17:00 +28°C° 0.4 mm 1 mps 686 mmHg 72%
    18:00 +27°C° 0.4 mm 2 mps 686 mmHg 82%
    19:00 +25°C° 0.7 mm 1 mps 686 mmHg 87%
    20:00 +24°C° 0.7 mm 1 mps 686 mmHg 91%
    21:00 +21°C° 0.7 mm 0 mps 686 mmHg 96%
    22:00 +20°C° 0 mm 0 mps 686 mmHg 97%
    23:00 +20°C° 0 mm 0 mps 686 mmHg 97%

    23 January, Wednesday

    Time Temperature Precipitation Wind Pressure Humidity
    00:00 +20°C° 0 mm 0 mps 686 mmHg 98%
    01:00 +20°C° 0 mm 0 mps 686 mmHg 98%
    02:00 +19°C° 0 mm 0 mps 686 mmHg 98%
    03:00 +19°C° 0 mm 0 mps 685 mmHg 98%
    04:00 +19°C° 0 mm 0 mps 686 mmHg 98%
    05:00 +19°C° 0 mm 0 mps 686 mmHg 98%
    06:00 +19°C° 0 mm 0 mps 686 mmHg 98%
    07:00 +21°C° 0 mm 0 mps 687 mmHg 88%
    08:00 +24°C° 0 mm 0 mps 687 mmHg 78%
    09:00 +27°C° 0 mm 0 mps 688 mmHg 68%
    10:00 +29°C° 0 mm 0 mps 688 mmHg 59%
    11:00 +31°C° 0 mm 0 mps 688 mmHg 49%
    12:00 +36°C° 0 mm 1 mps 688 mmHg 39%
    13:00 +35°C° 0 mm 1 mps 688 mmHg 43%
    14:00 +34°C° 0 mm 1 mps 687 mmHg 47%
    15:00 +33°C° 0 mm 1 mps 686 mmHg 51%
    16:00 +31°C° 0 mm 1 mps 686 mmHg 57%
    17:00 +29°C° 0 mm 1 mps 686 mmHg 64%
    18:00 +28°C° 0 mm 1 mps 686 mmHg 70%
    19:00 +26°C° 1.8 mm 1 mps 686 mmHg 78%
    20:00 +23°C° 1.8 mm 0 mps 686 mmHg 85%
    21:00 +22°C° 1.8 mm 0 mps 686 mmHg 93%
    22:00 +21°C° 0.7 mm 0 mps 686 mmHg 94%
    23:00 +21°C° 0.7 mm 0 mps 686 mmHg 96%

    24 January, Thursday

    Time Temperature Precipitation Wind Pressure Humidity
    00:00 +21°C° 0.7 mm 0 mps 686 mmHg 97%
    01:00 +20°C° 0 mm 0 mps 686 mmHg 97%
    02:00 +20°C° 0 mm 0 mps 685 mmHg 97%
    03:00 +22°C° 0 mm 1 mps 685 mmHg 97%
    04:00 +20°C° 0.4 mm 0 mps 685 mmHg 98%
    05:00 +19°C° 0.4 mm 0 mps 685 mmHg 98%
    06:00 +19°C° 0.4 mm 0 mps 685 mmHg 99%
    07:00 +23°C° 0 mm 1 mps 686 mmHg 90%
    08:00 +26°C° 0 mm 1 mps 686 mmHg 80%
    09:00 +28°C° 0 mm 1 mps 687 mmHg 71%
    10:00 +28°C° 2.1 mm 1 mps 687 mmHg 74%
    11:00 +29°C° 2.1 mm 1 mps 686 mmHg 76%
    12:00 +28°C° 2.1 mm 0 mps 686 mmHg 79%
    13:00 +31°C° 1.3 mm 1 mps 686 mmHg 68%
    14:00 +32°C° 1.3 mm 1 mps 686 mmHg 58%
    15:00 +33°C° 1.3 mm 1 mps 686 mmHg 48%
    16:00 +31°C° 0.3 mm 2 mps 685 mmHg 55%
    17:00 +30°C° 0.3 mm 2 mps 685 mmHg 63%
    18:00 +28°C° 0.3 mm 3 mps 685 mmHg 70%
    19:00 +27°C° 0.1 mm 2 mps 686 mmHg 77%
    20:00 +25°C° 0.1 mm 2 mps 686 mmHg 84%
    21:00 +23°C° 0.1 mm 1 mps 686 mmHg 91%
    22:00 +23°C° 0.1 mm 1 mps 686 mmHg 93%
    23:00 +22°C° 0.1 mm 1 mps 686 mmHg 96%
    Show more